DW9082 Weather Reports


time (UTC)temp
C
wind
direction
speed
KPH
gust
KPH
rain 1hr
cm
rain 24hr
cm
rain mn
cm
humidity
%
barometer
mb
20260504081539 7 224 0.0 4.8 0.00 0.00 0.00 73 1015.8
20260504050019 7 207 1.6 4.8 0.00 0.00 0.00 68 1015.4
20260504044546 7 218 0.0 4.8 0.00 0.00 0.00 68 1015.4
20260504043031 7 232 0.0 4.8 0.00 0.00 0.00 67 1015.2
20260504041542 7 205 0.0 4.8 0.00 0.00 0.00 66 1015.1
20260504040039 8 174 0.0 6.4 0.00 0.00 0.00 64 1014.9
20260504034548 8 203 1.6 6.4 0.00 0.00 0.00 63 1014.8
20260504033022 8 170 1.6 6.4 0.00 0.00 0.00 62 1014.8
20260504031600 8 171 1.6 4.8 0.00 0.00 0.00 62 1014.7
20260504030041 8 195 1.6 4.8 0.00 0.00 0.00 60 1014.7
20260504024514 8 209 0.0 3.2 0.00 0.00 0.00 59 1014.8
20260504023036 8 214 1.6 6.4 0.00 0.00 0.00 58 1014.8
20260504021600 8 255 1.6 4.8 0.00 0.00 0.00 57 1014.8
20260504021502 8 180 1.6 4.8 0.00 0.00 0.00 57 1014.8
20260504020048 9 183 0.0 1.6 0.00 0.00 0.00 56 1014.7
20260504014525 9 218 0.0 4.8 0.00 0.00 0.00 54 1014.6
20260504013042 10 218 0.0 3.2 0.00 0.00 0.00 52 1014.4
20260504011524 10 231 0.0 4.8 0.00 0.00 0.00 51 1014.4
20260504010045 10 221 0.0 3.2 0.00 0.00 0.00 48 1014.1
20260504004526 11 205 0.0 4.8 0.00 0.00 0.00 47 1014.0
20260504003100 11 211 0.0 1.6 0.00 0.00 0.00 44 1013.7
20260504003002 11 211 0.0 1.6 0.00 0.00 0.00 44 1013.7
20260504001518 12 218 0.0 1.6 0.00 0.00 0.00 41 1013.4
20260504000051 13 252 1.6 6.4 0.00 0.00 0.00 38 1013.4
20260503234546 13 232 3.2 12.9 0.00 0.00 0.00 36 1013.4
20260503233050 14 280 1.6 9.7 0.00 0.00 0.00 36 1013.2
20260503231528 15 256 9.7 20.9 0.00 0.00 0.00 34 1013.1
20260503230058 15 288 8.0 20.9 0.00 0.00 0.00 34 1013.0
20260503224518 15 276 11.3 30.6 0.00 0.00 0.00 33 1012.9
20260503223054 15 290 12.9 25.7 0.00 0.00 0.00 33 1013.0
20260503221537 15 281 6.4 20.9 0.00 0.00 0.00 33 1012.9
20260503220013 15 284 6.4 20.9 0.00 0.00 0.00 34 1012.9
20260503214550 15 305 12.9 24.1 0.00 0.00 0.00 34 1013.0
20260503213036 14 264 16.1 33.8 0.00 0.00 0.00 34 1012.9
20260503211544 14 322 14.5 27.4 0.00 0.00 0.00 34 1012.9
20260503210018 14 262 16.1 33.8 0.00 0.00 0.00 34 1013.0
20260503204600 14 325 11.3 25.7 0.00 0.00 0.00 35 1013.0
20260503204505 14 298 11.3 25.7 0.00 0.00 0.00 36 1013.0
20260503203021 13 276 9.7 30.6 0.00 0.00 0.00 37 1013.1
20260503201553 13 325 14.5 33.8 0.00 0.00 0.00 34 1013.0
20260503200032 14 326 9.7 30.6 0.00 0.00 0.00 35 1013.0
20260503194524 13 316 17.7 37.0 0.00 0.00 0.00 34 1013.2
20260503193039 13 302 11.3 24.1 0.00 0.00 0.00 35 1013.3
20260503191540 13 308 16.1 29.0 0.00 0.00 0.00 34 1013.3
20260503190011 13 273 14.5 25.7 0.00 0.00 0.00 34 1013.5
20260503184546 13 340 8.0 22.5 0.00 0.00 0.00 36 1013.6
20260503183018 12 288 11.3 37.0 0.00 0.00 0.00 36 1013.9
20260503181600 12 266 17.7 30.6 0.00 0.00 0.00 37 1013.8
20260503181502 12 283 11.3 30.6 0.00 0.00 0.00 39 1013.9
20260503180034 12 260 6.4 20.9 0.00 0.00 0.00 40 1013.9
20260503174557 12 255 12.9 30.6 0.00 0.00 0.00 41 1014.1
20260503173037 12 281 9.7 33.8 0.00 0.00 0.00 41 1014.1
20260503171552 11 297 14.5 37.0 0.00 0.00 0.00 42 1014.0